| time (UTC) | temp C | wind direction | speed KPH | gust KPH | rain 1hr cm | rain 24hr cm | rain mn cm | humidity % | barometer mb |
| 20260906013101 | 25 | 79 | 9.7 | 33.8 | 0.00 | 0.18 | 0.18 | 81 | 1011.9 |
| 20260906011604 | 26 | 48 | 22.5 | 38.6 | 0.00 | 0.18 | 0.18 | 77 | 1012.0 |
| 20260906010109 | 30 | 24 | 6.4 | 12.9 | 0.00 | 0.18 | 0.18 | 68 | 1011.7 |
| 20260906004605 | 30 | 355 | 3.2 | 4.8 | 0.00 | 0.18 | 0.18 | 67 | 1011.1 |
| 20260906003108 | 30 | 355 | 3.2 | 6.4 | 0.00 | 0.18 | 0.18 | 66 | 1011.0 |
| 20260906001617 | 30 | 0 | 0.0 | 3.2 | 0.00 | 0.18 | 0.18 | 65 | 1010.6 |
| 20260906000108 | 31 | 352 | 3.2 | 4.8 | 0.00 | 0.18 | 0.18 | 65 | 1010.8 |
| 20260905234602 | 31 | 352 | 0.0 | 3.2 | 0.00 | 0.18 | 0.18 | 64 | 1011.2 |
| 20260905233112 | 31 | 352 | 3.2 | 4.8 | 0.00 | 0.18 | 0.18 | 64 | 1011.2 |
| 20260905231600 | 31 | 0 | 0.0 | 3.2 | 0.00 | 0.18 | 0.18 | 64 | 1011.2 |
| 20260905230106 | 31 | 352 | 1.6 | 6.4 | 0.00 | 0.18 | 0.18 | 65 | 1011.3 |
| 20260905224609 | 31 | 355 | 4.8 | 6.4 | 0.00 | 0.18 | 0.18 | 65 | 1011.2 |
| 20260905223104 | 31 | 311 | 1.6 | 6.4 | 0.00 | 0.18 | 0.18 | 64 | 1011.0 |
| 20260905221603 | 32 | 308 | 4.8 | 8.0 | 0.00 | 0.18 | 0.18 | 63 | 1011.1 |
| 20260905220105 | 32 | 301 | 6.4 | 14.5 | 0.00 | 0.18 | 0.18 | 62 | 1011.1 |
| 20260905214600 | 32 | 316 | 9.7 | 16.1 | 0.00 | 0.18 | 0.18 | 61 | 1011.0 |
| 20260905213109 | 32 | 336 | 9.7 | 17.7 | 0.00 | 0.18 | 0.18 | 61 | 1010.9 |
| 20260905211603 | 32 | 281 | 4.8 | 17.7 | 0.00 | 0.18 | 0.18 | 62 | 1011.1 |
| 20260905210113 | 32 | 321 | 9.7 | 16.1 | 0.00 | 0.18 | 0.18 | 61 | 1011.3 |
| 20260905204604 | 32 | 280 | 11.3 | 19.3 | 0.00 | 0.18 | 0.18 | 60 | 1011.4 |
| 20260905203107 | 32 | 259 | 8.0 | 16.1 | 0.00 | 0.18 | 0.18 | 61 | 1011.7 |
| 20260905201609 | 32 | 261 | 14.5 | 22.5 | 0.00 | 0.18 | 0.18 | 61 | 1011.8 |
| 20260905200152 | 32 | 254 | 6.4 | 17.7 | 0.00 | 0.18 | 0.18 | 61 | 1011.8 |
| 20260905194616 | 32 | 265 | 3.2 | 14.5 | 0.00 | 0.18 | 0.18 | 59 | 1012.0 |
| 20260905193100 | 31 | 259 | 6.4 | 14.5 | 0.00 | 0.18 | 0.18 | 61 | 1012.1 |
| 20260905191602 | 31 | 254 | 6.4 | 16.1 | 0.00 | 0.18 | 0.18 | 60 | 1012.4 |
| 20260905184611 | 31 | 227 | 6.4 | 19.3 | 0.00 | 0.18 | 0.18 | 62 | 1012.8 |
| 20260905183112 | 30 | 243 | 6.4 | 19.3 | 0.00 | 0.18 | 0.18 | 65 | 1012.8 |
| 20260905181601 | 30 | 205 | 4.8 | 19.3 | 0.00 | 0.18 | 0.18 | 66 | 1012.9 |
| 20260905174607 | 29 | 248 | 8.0 | 17.7 | 0.00 | 0.18 | 0.18 | 67 | 1013.2 |
| 20260905173100 | 28 | 254 | 6.4 | 14.5 | 0.00 | 0.18 | 0.18 | 66 | 1013.5 |
| 20260905171607 | 28 | 208 | 9.7 | 16.1 | 0.00 | 0.18 | 0.18 | 66 | 1013.4 |
| 20260905170109 | 28 | 247 | 3.2 | 11.3 | 0.00 | 0.18 | 0.18 | 68 | 1013.7 |
| 20260905164605 | 27 | 251 | 6.4 | 16.1 | 0.00 | 0.18 | 0.18 | 68 | 1014.0 |
| 20260905163104 | 27 | 169 | 8.0 | 19.3 | 0.00 | 0.18 | 0.18 | 67 | 1014.2 |
| 20260905161609 | 27 | 142 | 4.8 | 12.9 | 0.00 | 0.18 | 0.18 | 70 | 1014.2 |
| 20260905160106 | 26 | 150 | 8.0 | 19.3 | 0.00 | 0.18 | 0.18 | 70 | 1014.2 |
| 20260905154600 | 26 | 157 | 11.3 | 16.1 | 0.00 | 0.18 | 0.18 | 73 | 1014.1 |
| 20260905153102 | 26 | 194 | 6.4 | 19.3 | 0.00 | 0.18 | 0.18 | 74 | 1014.0 |
| 20260905151602 | 25 | 128 | 8.0 | 17.7 | 0.00 | 0.18 | 0.18 | 76 | 1014.0 |
| 20260905144604 | 24 | 146 | 4.8 | 12.9 | 0.00 | 0.18 | 0.18 | 79 | 1014.0 |
| 20260905143105 | 23 | 134 | 3.2 | 14.5 | 0.00 | 0.18 | 0.18 | 78 | 1014.2 |
| 20260905141601 | 23 | 123 | 9.7 | 19.3 | 0.00 | 0.18 | 0.18 | 80 | 1014.2 |
| 20260905140105 | 22 | 94 | 9.7 | 19.3 | 0.00 | 0.18 | 0.18 | 82 | 1014.4 |
| 20260905134611 | 22 | 96 | 6.4 | 20.9 | 0.00 | 0.18 | 0.18 | 85 | 1014.7 |
| 20260905133100 | 21 | 99 | 8.0 | 16.1 | 0.00 | 0.18 | 0.18 | 88 | 1015.1 |
| 20260905131605 | 21 | 111 | 6.4 | 19.3 | 0.00 | 0.18 | 0.18 | 89 | 1015.4 |
| 20260905124605 | 20 | 107 | 14.5 | 22.5 | 0.10 | 0.18 | 0.18 | 90 | 1015.7 |
| 20260905123108 | 21 | 113 | 16.1 | 22.5 | 0.13 | 0.18 | 0.18 | 90 | 1015.9 |
| 20260905121603 | 21 | 111 | 1.6 | 14.5 | 0.13 | 0.18 | 0.18 | 89 | 1016.5 |
| 20260905120105 | 21 | 155 | 14.5 | 20.9 | 0.13 | 0.18 | 0.18 | 87 | 1016.5 |
| 20260905114613 | 22 | 121 | 9.7 | 20.9 | 0.03 | 0.08 | 0.08 | 85 | 1016.2 |
| 20260905113108 | 22 | 53 | 16.1 | 48.3 | 0.00 | 0.05 | 0.05 | 83 | 1015.9 |
| 20260905111613 | 23 | 36 | 24.1 | 62.8 | 0.00 | 0.05 | 0.05 | 83 | 1015.0 |
| 20260905110104 | 23 | 35 | 20.9 | 37.0 | 0.00 | 0.05 | 0.05 | 81 | 1014.3 |
| 20260905104603 | 24 | 242 | 4.8 | 9.7 | 0.03 | 0.05 | 0.05 | 76 | 1012.8 |
| 20260905103102 | 25 | 298 | 3.2 | 11.3 | 0.05 | 0.05 | 0.05 | 76 | 1012.2 |
| 20260905101602 | 24 | 228 | 0.0 | 4.8 | 0.05 | 0.05 | 0.05 | 78 | 1012.6 |
| 20260905100107 | 24 | 233 | 4.8 | 25.7 | 0.05 | 0.05 | 0.05 | 80 | 1013.0 |
| 20260905094612 | 23 | 212 | 32.2 | 64.4 | 0.03 | 0.03 | 0.03 | 87 | 1013.3 |
| 20260905093101 | 23 | 244 | 16.1 | 22.5 | 0.00 | 0.00 | 0.00 | 88 | 1014.1 |
| 20260905091609 | 25 | 273 | 4.8 | 6.4 | 0.00 | 0.00 | 0.00 | 85 | 1012.9 |
| 20260905090103 | 24 | 272 | 1.6 | 4.8 | 0.00 | 0.00 | 0.00 | 86 | 1012.4 |
| 20260905084607 | 24 | 271 | 3.2 | 6.4 | 0.00 | 0.00 | 0.00 | 88 | 1012.7 |
| 20260905083102 | 23 | 271 | 3.2 | 6.4 | 0.00 | 0.00 | 0.00 | 90 | 1012.7 |
| 20260905081619 | 23 | 206 | 3.2 | 4.8 | 0.00 | 0.00 | 0.00 | 89 | 1012.5 |
| 20260905080107 | 23 | 205 | 3.2 | 6.4 | 0.00 | 0.00 | 0.00 | 89 | 1012.4 |
| 20260905074604 | 23 | 205 | 3.2 | 4.8 | 0.00 | 0.00 | 0.00 | 90 | 1012.3 |
| 20260905073102 | 23 | 205 | 3.2 | 6.4 | 0.00 | 0.00 | 0.00 | 90 | 1012.3 |
| 20260905071606 | 23 | 163 | 1.6 | 6.4 | 0.00 | 0.00 | 0.00 | 90 | 1012.5 |
| 20260905070105 | 24 | 163 | 1.6 | 6.4 | 0.00 | 0.00 | 0.00 | 88 | 1012.7 |
| 20260905064603 | 25 | 163 | 0.0 | 0.0 | 0.00 | 0.00 | 0.00 | 86 | 1012.9 |
| 20260905063118 | 25 | 163 | 0.0 | 3.2 | 0.00 | 0.00 | 0.00 | 85 | 1013.1 |
| 20260905061614 | 25 | 163 | 0.0 | 6.4 | 0.00 | 0.00 | 0.00 | 85 | 1013.2 |
| 20260905060105 | 25 | 163 | 1.6 | 6.4 | 0.00 | 0.00 | 0.00 | 86 | 1013.4 |
| 20260905054601 | 25 | 163 | 1.6 | 6.4 | 0.00 | 0.00 | 0.00 | 85 | 1013.6 |
| 20260905053100 | 25 | 163 | 1.6 | 6.4 | 0.00 | 0.00 | 0.00 | 83 | 1013.8 |
| 20260905051603 | 26 | 163 | 1.6 | 3.2 | 0.00 | 0.00 | 0.00 | 81 | 1014.0 |
| 20260905050106 | 26 | 0 | 0.0 | 3.2 | 0.00 | 0.00 | 0.00 | 81 | 1013.9 |
| 20260905044603 | 26 | 163 | 1.6 | 3.2 | 0.00 | 0.00 | 0.00 | 81 | 1013.9 |
| 20260905043119 | 26 | 163 | 4.8 | 8.0 | 0.00 | 0.00 | 0.00 | 80 | 1014.0 |
| 20260905041602 | 26 | 163 | 3.2 | 6.4 | 0.00 | 0.00 | 0.00 | 80 | 1014.0 |
| 20260905040120 | 26 | 163 | 3.2 | 6.4 | 0.00 | 0.00 | 0.00 | 80 | 1014.0 |
| 20260905034602 | 26 | 0 | 0.0 | 1.6 | 0.00 | 0.00 | 0.00 | 81 | 1014.2 |
| 20260905033104 | 26 | 0 | 0.0 | 3.2 | 0.00 | 0.00 | 0.00 | 81 | 1014.1 |
| 20260905031610 | 26 | 163 | 1.6 | 6.4 | 0.00 | 0.00 | 0.00 | 81 | 1014.0 |
| 20260905030106 | 26 | 163 | 6.4 | 8.0 | 0.00 | 0.00 | 0.00 | 80 | 1013.9 |
| 20260905024605 | 26 | 146 | 3.2 | 4.8 | 0.00 | 0.00 | 0.00 | 79 | 1014.0 |
| 20260905023107 | 26 | 0 | 0.0 | 4.8 | 0.00 | 0.00 | 0.00 | 78 | 1014.0 |
| 20260905021605 | 26 | 67 | 3.2 | 6.4 | 0.00 | 0.00 | 0.00 | 78 | 1014.0 |
| 20260905014604 | 26 | 66 | 0.0 | 6.4 | 0.00 | 0.00 | 0.00 | 78 | 1013.9 |